Glenwood, MN

5:19 PM CDT on August 17, 2017 (GMT -0500)
Glenwood Municipal

Weather History for KGHW - August, 2012

Change the Weather History Date:

Sunday, August 26, 2012

  Actual Average Record
Temperature  
Mean Temperature 71 °F -  
Max Temperature 82 °F 79 °F 93 °F (1949)
Min Temperature 60 °F 55 °F 43 °F (1958)
Cooling Degree Days 6    
Growing Degree Days 21 (Base 50)    
Moisture  
Dew Point 56 °F    
Average Humidity 65    
Maximum Humidity 94    
Minimum Humidity 26    
Precipitation  
Precipitation 0.00 in - - ()
Sea Level Pressure  
Sea Level Pressure 30.00 in    
Wind  
Wind Speed 5 mph (WSW)    
Max Wind Speed 14 mph    
Max Gust Speed 17 mph    
Visibility 7 miles    
Events Fog , Rain    
Averages and records for this station are not official NWS values.
T = Trace of Precipitation, MM = Missing Value Source: NWS Daily Summary

Daily Weather History Graph

Daily Weather History Graph

Search for Another Location

Airport or City:

Trip Planner

Search our weather history database for the weather conditions in past years. The results will help you decide how hot, cold, wet, or windy it might be!

Date:

Astronomy

Aug. 26, 2012 Rise Set
Actual Time 6:35 AM CDT 8:09 PM CDT
Civil Twilight 6:04 AM CDT 8:40 PM CDT
Nautical Twilight 5:26 AM CDT 9:17 PM CDT
Astronomical Twilight 4:45 AM CDT 9:58 PM CDT
Moon 4:49 PM CDT (8/26) 1:07 AM CDT (8/26)
Length of Visible Light 14h 35m
Length of Day
13h 33m
Waxing Gibbous, 73% of the Moon is Illuminated
Aug 26
Waxing Gibbous
Aug 31
Full
Sep 8
Last Quarter
Sep 15
New
Sep 22
First Quarter

Hourly Weather History & Observations

Time (CDT) Temp. Heat Index Dew Point Humidity Pressure Visibility Wind Dir Wind Speed Gust Speed Precip Events Conditions
12:14 AM 66.2 °F - 62.6 °F 88% 29.95 in 5.0 mi South 5.8 mph - N/A   Overcast
12:33 AM 66.2 °F - 62.6 °F 88% 29.95 in 4.0 mi SSW 4.6 mph - N/A   Overcast
12:53 AM 66.2 °F - 62.6 °F 88% 29.95 in 5.0 mi SSW 3.5 mph - N/A   Overcast
1:14 AM 66.2 °F - 62.6 °F 88% 29.96 in 5.0 mi SSW 4.6 mph - N/A   Overcast
1:33 AM 66.2 °F - 62.6 °F 88% 29.96 in 4.0 mi SSW 4.6 mph - N/A Rain Light Rain
1:53 AM 66.2 °F - 62.6 °F 88% 29.96 in 4.0 mi SW 3.5 mph - N/A   Overcast
2:14 AM 66.2 °F - 62.6 °F 88% 29.96 in 4.0 mi SW 3.5 mph - N/A   Mostly Cloudy
2:33 AM 64.4 °F - 62.6 °F 94% 29.96 in 2.5 mi WNW 3.5 mph - N/A   Mostly Cloudy
2:53 AM 66.2 °F - 62.6 °F 88% 29.96 in 4.0 mi West 6.9 mph - N/A   Scattered Clouds
3:13 AM 64.4 °F - 60.8 °F 88% 29.96 in 5.0 mi West 4.6 mph - N/A   Clear
3:33 AM 62.6 °F - 60.8 °F 94% 29.96 in 0.2 mi Calm Calm - N/A Fog Fog
3:54 AM 62.6 °F - 60.8 °F 94% 29.96 in 0.2 mi South 3.5 mph - N/A Fog Fog
4:13 AM 64.4 °F - 60.8 °F 88% 29.96 in 0.2 mi South 4.6 mph - N/A Fog Fog
4:54 AM 64.4 °F - 62.6 °F 94% 29.97 in 0.2 mi SW 4.6 mph - N/A Fog Fog
5:13 AM 64.4 °F - 62.6 °F 94% 29.96 in 0.2 mi Calm Calm - N/A Fog Fog
5:33 AM 64.4 °F - 60.8 °F 88% 29.97 in 0.2 mi Calm Calm - N/A Fog Fog
5:54 AM 62.6 °F - 60.8 °F 94% 29.97 in 0.2 mi Calm Calm - N/A Fog Fog
6:13 AM 60.8 °F - 57.2 °F 88% 29.97 in 0.2 mi Calm Calm - N/A Fog Fog
6:33 AM 60.8 °F - 59.0 °F 94% 29.98 in 0.5 mi Calm Calm - N/A Fog Fog
6:54 AM 62.6 °F - 60.8 °F 94% 29.98 in 0.2 mi SSW 3.5 mph - N/A Fog Fog
7:13 AM 62.6 °F - 60.8 °F 94% 29.98 in 1.8 mi SW 6.9 mph - N/A   Overcast
7:33 AM 62.6 °F - 60.8 °F 94% 29.99 in 0.8 mi SW 5.8 mph - N/A   Overcast
7:54 AM 62.6 °F - 60.8 °F 94% 29.99 in 0.2 mi WSW 5.8 mph - N/A Fog Fog
8:13 AM 62.6 °F - 59.0 °F 88% 30.00 in 0.8 mi SW 5.8 mph - N/A   Overcast
8:33 AM 62.6 °F - 59.0 °F 88% 30.00 in 0.8 mi SW 4.6 mph - N/A   Overcast
8:54 AM 62.6 °F - 60.8 °F 94% 30.00 in 3.0 mi SSW 4.6 mph - N/A   Overcast
9:13 AM 62.6 °F - 60.8 °F 94% 30.01 in 5.0 mi WSW 4.6 mph - N/A   Overcast
9:33 AM 64.4 °F - 60.8 °F 88% 30.01 in 7.0 mi SSW 4.6 mph - N/A   Scattered Clouds
9:54 AM 66.2 °F - 60.8 °F 83% 30.01 in 10.0 mi SSW 4.6 mph - N/A   Clear
10:13 AM 69.8 °F - 60.8 °F 73% 30.01 in 10.0 mi SW 4.6 mph - N/A   Clear
10:33 AM 69.8 °F - 60.8 °F 73% 30.02 in 10.0 mi WSW 9.2 mph - N/A   Clear
10:54 AM 71.6 °F - 60.8 °F 69% 30.03 in 10.0 mi West 9.2 mph - N/A   Clear
11:13 AM 71.6 °F - 60.8 °F 69% 30.03 in 10.0 mi West 8.1 mph - N/A   Clear
11:33 AM 73.4 °F - 59.0 °F 61% 30.03 in 10.0 mi West 9.2 mph - N/A   Clear
11:54 AM 75.2 °F - 57.2 °F 53% 30.02 in 10.0 mi SW 8.1 mph - N/A   Clear
12:13 PM 75.2 °F - 55.4 °F 50% 30.02 in 10.0 mi WSW 6.9 mph - N/A   Clear
12:34 PM 77.0 °F - 55.4 °F 47% 30.02 in 10.0 mi West 5.8 mph - N/A   Clear
12:53 PM 77.0 °F - 55.4 °F 47% 30.02 in 10.0 mi WSW 8.1 mph - N/A   Clear
1:13 PM 78.8 °F - 53.6 °F 42% 30.02 in 10.0 mi SW 8.1 mph - N/A   Clear
1:33 PM 78.8 °F - 51.8 °F 39% 30.01 in 10.0 mi WSW 8.1 mph - N/A   Clear
1:53 PM 80.6 °F - 51.8 °F 37% 30.01 in 10.0 mi WSW 8.1 mph - N/A   Clear
2:13 PM 80.6 °F - 50.0 °F 34% 30.01 in 10.0 mi WSW 8.1 mph - N/A   Clear
2:53 PM 80.6 °F - 46.4 °F 30% 30.01 in 10.0 mi West 10.4 mph - N/A   Clear
3:13 PM 80.6 °F - 46.4 °F 30% 30.01 in 10.0 mi SW 10.4 mph - N/A   Clear
3:33 PM 82.4 °F - 46.4 °F 28% 30.01 in 10.0 mi WSW 9.2 mph - N/A   Clear
3:53 PM 82.4 °F - 44.6 °F 26% 30.01 in 10.0 mi West 13.8 mph - N/A   Clear
4:13 PM 82.4 °F - 46.4 °F 28% 30.00 in 10.0 mi West 11.5 mph - N/A   Clear
4:34 PM 82.4 °F - 48.2 °F 30% 30.00 in 10.0 mi West 9.2 mph - N/A   Clear
4:53 PM 82.4 °F - 50.0 °F 32% 30.00 in 10.0 mi West 10.4 mph - N/A   Clear
5:13 PM 82.4 °F 81.4 °F 53.6 °F 37% 30.00 in 10.0 mi WSW 8.1 mph - N/A   Clear
5:34 PM 82.4 °F - 51.8 °F 35% 30.01 in 10.0 mi West 11.5 mph 17.3 mph N/A   Clear
5:53 PM 80.6 °F - 46.4 °F 30% 30.01 in 10.0 mi WNW 11.5 mph - N/A   Clear
6:13 PM 80.6 °F - 44.6 °F 28% 30.01 in 10.0 mi WNW 11.5 mph - N/A   Clear
6:34 PM 78.8 °F - 48.2 °F 34% 30.01 in 10.0 mi NW 9.2 mph - N/A   Clear
6:53 PM 78.8 °F - 50.0 °F 36% 30.01 in 10.0 mi NW 6.9 mph - N/A   Clear
7:13 PM 75.2 °F - 51.8 °F 44% 30.01 in 10.0 mi NW 6.9 mph - N/A   Clear
7:34 PM 73.4 °F - 53.6 °F 50% 30.01 in 10.0 mi WNW 5.8 mph - N/A   Clear
7:53 PM 71.6 °F - 51.8 °F 50% 30.02 in 10.0 mi WNW 3.5 mph - N/A   Clear
8:13 PM 71.6 °F - 48.2 °F 43% 30.02 in 10.0 mi West 3.5 mph - N/A   Clear
8:33 PM 69.8 °F - 51.8 °F 53% 30.02 in 10.0 mi Calm Calm - N/A   Clear
8:53 PM 68.0 °F - 50.0 °F 52% 30.03 in 10.0 mi West 3.5 mph - N/A   Clear
9:14 PM 69.8 °F - 48.2 °F 46% 30.04 in 10.0 mi WNW 3.5 mph - N/A   Clear
9:33 PM 68.0 °F - 48.2 °F 49% 30.04 in 10.0 mi Calm Calm - N/A   Clear
9:53 PM 64.4 °F - 50.0 °F 59% 30.05 in 10.0 mi Calm Calm - N/A   Clear
10:14 PM 66.2 °F - 48.2 °F 52% 30.06 in 10.0 mi Calm Calm - N/A   Clear
10:33 PM 66.2 °F - 48.2 °F 52% 30.06 in 10.0 mi Calm Calm - N/A   Clear
10:53 PM 64.4 °F - 48.2 °F 56% 30.06 in 10.0 mi Calm Calm - N/A   Clear
11:53 PM 62.6 °F - 51.8 °F 68% 30.08 in 10.0 mi NW 4.6 mph - N/A   Clear